map of CRD home
Great Circle Mapper logo
CRD - Airport
Location
City:  Comodoro Rivadavia, Chubut, Argentina
Name:General E. Mosconi
ICAO / IATA:SAVC / CRD

Details
Type:Airport (Aerodrome, Airfield)
Use:Public/Civil, Military
Latitude:4547'07"S (-45.785346)
Longitude:6727'56"W (-67.465507)
Datum:WGS 1984
Elevation:190 ft (58 m)
Variation:6.57E (WMM2015 magnetic declination)
-0.11 annual change
Runways:1
Longest:9275 × 164 ft (2827 × 50 m), paved

Time
Time Zone:UTC-3
Local Time:

Weather
METAR:SAVC 072100Z 32003KT CAVOK 09/02 Q1008
TAF:SAVC 071700Z 0718/0818 30015KT 9999 FEW030 SCT090 TX13/0718Z TN05/0811Z
BECMG 0722/0800 36010KT RA BKN030 OVC045

Related Locations
Nearby:
Farthest:UUN: 12362 mi / 19894 km
Baruun-Urt, MN

Find:

   beyond  
but within

Other Information
Maps:
NOTAMs:
Links:
Sources:

  
flag of Argentina
flag of Chubut
  

Sectional Chart

Flight Planning
at skyvector.com

Satellite Image

Google Maps Satellite view

 

Copyright © 2004-2015 Karl L. Swartz. All rights reserved.
The Great Circle Mapper name and logo are trademarks of the Great Circle Mapper.
All other trademarks mentioned herein belong to their respective owners.
Please see credits for attibutions and further copyright information.

  Follow gcmap on Facebook Follow gcmap on Twitter Follow gcmap on Google+

hCard Microformat

Geo Microformat